Theta_e
326 325 326 327 326 325 327 328 325 328 334 332 326 326 328 328 330 334 333 333 340 343 343 345 345 346 346 347 350 353 354 356 355 354 354 355 356 354 352 351 350 351 351 351 351 351 352 351 351 351 350 351 351 352 353 352 351 352 350 349 352 353 352
326 326 326 326 327 327 325 324 327 330 334 332 328 327 326 328 332 334 330 330 336 335 337 344 345 345 345 345 349 354 354 356 355 354 355 356 355 353 352 351 351 352 351 351 352 351 352 351 351 351 351 352 353 353 353 352 350 351 351 350 351 353 353
325 325 325 323 325 327 326 325 328 331 327 326 327 327 327 328 330 331 327 329 334 334 337 344 345 346 346 344 349 352 354 355 354 354 355 355 355 355 355 354 353 352 351 352 353 352 352 352 351 352 353 353 354 354 354 353 350 350 350 350 349 351 352
324 324 323 320 321 325 326 326 327 328 328 326 327 327 328 328 329 331 329 328 332 338 342 344 345 348 347 345 347 351 353 355 354 355 356 356 358 357 356 357 354 352 351 351 352 352 352 351 351 353 354 353 353 355 356 355 353 351 350 349 347 350 352
322 320 322 320 321 322 322 322 323 324 325 326 327 328 327 327 327 329 329 330 336 345 348 347 348 350 347 345 348 351 353 355 353 355 356 357 358 356 355 358 356 352 352 351 352 352 352 351 352 353 355 355 355 355 357 357 355 354 351 349 348 348 349
318 320 323 322 323 324 323 322 320 323 323 322 323 324 325 326 325 325 325 329 338 348 350 350 348 349 349 348 351 351 353 354 353 354 355 356 356 356 356 357 357 355 353 352 353 353 354 353 352 351 352 354 355 355 356 357 356 355 353 350 349 348 349
320 323 324 323 323 324 325 324 323 325 324 321 320 320 323 322 323 324 322 325 337 346 349 351 349 347 350 350 352 353 354 355 354 354 355 354 355 357 356 357 356 356 354 353 353 353 354 355 353 349 347 351 356 356 357 358 357 356 356 353 350 350 349
324 324 324 324 323 323 323 324 324 323 323 325 324 323 325 323 321 324 321 324 337 348 349 351 352 351 350 350 352 352 353 354 352 353 354 354 356 357 356 356 355 354 353 352 352 353 354 355 354 352 350 352 356 356 357 357 356 358 358 356 355 352 349
321 322 321 321 321 322 322 323 324 324 323 325 325 324 325 322 320 324 321 322 337 349 350 351 351 350 350 351 352 351 353 353 351 352 353 354 356 356 355 355 354 352 351 351 351 352 354 356 355 353 352 353 353 354 356 356 356 358 357 355 354 350 348
318 319 319 319 320 320 323 324 324 324 324 323 323 321 320 318 320 323 320 323 339 350 350 350 350 349 350 351 352 352 352 352 351 352 352 352 354 354 354 353 351 349 347 346 347 347 349 353 354 352 351 352 352 350 351 353 354 354 352 349 347 346 345
320 321 324 325 324 320 319 321 322 323 324 324 325 321 318 319 321 321 322 329 338 344 348 350 349 349 350 351 353 353 353 353 352 352 352 352 353 352 352 352 350 348 347 346 347 346 344 346 348 347 348 350 349 346 347 349 349 349 348 345 344 344 344
325 326 328 328 325 321 320 319 321 324 325 325 325 320 321 327 322 319 329 333 331 338 347 349 348 349 350 352 354 353 353 353 354 353 352 353 352 351 352 352 350 349 349 348 349 347 346 345 345 346 345 345 345 344 345 346 345 345 346 345 345 345 345
325 326 326 326 326 324 322 322 321 324 325 324 324 322 324 329 323 322 334 338 334 340 347 346 348 351 351 352 352 352 353 354 354 354 353 353 352 351 351 352 351 350 350 350 348 347 347 346 345 346 346 345 345 344 345 345 344 346 346 346 346 346 347
324 325 326 327 326 324 324 326 325 326 326 325 324 324 325 329 329 329 339 344 345 347 347 347 350 351 350 350 350 350 351 352 353 354 354 353 353 352 352 353 352 351 351 350 349 348 348 347 348 347 346 346 346 345 345 345 345 345 345 346 347 348 348
324 325 327 327 326 327 326 328 329 328 326 325 326 328 331 333 332 334 340 345 347 347 348 349 349 349 350 349 349 350 350 351 352 353 353 353 352 352 351 351 350 350 350 351 350 350 350 349 350 349 348 348 347 346 346 346 345 345 344 345 346 347 348
326 325 326 328 328 328 327 327 331 333 330 329 331 334 337 337 334 337 341 342 345 346 347 348 348 349 350 349 349 350 349 351 352 352 352 350 348 348 348 348 349 349 349 349 350 349 349 349 350 350 351 350 349 349 348 347 347 346 345 345 346 347 349
325 324 324 328 328 326 325 326 330 335 335 336 337 337 338 338 338 339 340 341 344 346 346 346 347 348 350 349 350 349 350 350 350 350 348 345 344 346 347 347 348 348 347 347 347 348 347 348 349 349 350 350 350 350 349 348 349 348 347 348 348 349 351
324 327 326 326 327 327 326 327 330 335 336 337 338 338 337 338 339 341 341 343 345 344 343 344 346 347 349 349 349 349 348 347 347 345 343 343 346 348 347 346 346 345 345 345 345 345 345 345 347 347 348 349 349 350 350 349 349 349 350 350 350 350 351
326 330 326 322 326 328 328 328 329 333 335 335 336 337 337 337 339 341 342 343 344 343 344 346 346 346 347 346 346 346 344 343 343 343 342 344 347 347 345 344 344 343 343 343 343 343 342 343 344 345 346 348 348 348 349 348 347 348 349 350 349 350 350
326 327 324 324 327 328 327 329 329 330 333 334 334 336 336 337 338 340 342 342 344 345 344 344 345 344 344 343 343 343 342 342 342 343 343 344 344 345 345 344 343 342 342 342 342 343 343 344 343 344 345 346 347 347 346 346 347 347 348 349 349 349 349
326 323 323 327 329 328 329 330 328 328 330 331 333 334 335 336 338 340 341 342 344 345 343 342 342 341 342 341 340 339 339 340 342 341 342 342 343 343 343 342 341 341 340 341 341 342 343 343 342 343 343 343 343 344 343 344 344 345 346 346 344 345 346
325 322 323 326 328 330 331 330 327 327 327 329 331 331 330 334 339 340 341 342 343 343 342 341 341 341 342 339 336 336 336 336 339 339 339 340 341 341 340 340 340 339 338 339 339 340 341 341 340 340 340 339 340 340 340 341 341 342 342 342 340 341 344
326 324 323 321 325 331 332 328 327 327 326 326 330 329 327 330 335 338 340 343 343 342 341 341 342 343 342 337 334 334 334 333 335 336 336 337 338 338 338 338 337 337 337 337 337 338 338 338 336 335 335 336 337 338 337 337 338 338 338 338 337 338 339
327 327 323 321 324 329 329 327 327 327 326 325 327 327 326 328 332 335 338 340 342 343 342 342 341 342 341 337 333 332 333 332 333 334 335 336 336 336 336 335 335 335 335 334 333 333 331 330 327 325 325 326 328 328 328 329 333 334 334 334 334 335 334
325 325 324 326 327 326 327 327 327 328 328 326 324 325 327 329 331 334 336 337 339 341 341 340 339 340 339 336 332 332 333 332 331 332 334 335 335 335 334 333 333 332 331 330 329 326 324 322 319 318 320 321 319 318 317 318 322 325 326 327 329 330 328
324 322 325 329 327 326 326 328 328 329 330 328 326 327 329 330 331 334 335 336 338 339 339 340 340 339 337 335 334 334 333 332 332 332 333 335 334 333 333 332 331 330 329 328 328 326 324 322 320 319 319 316 315 317 317 316 315 316 317 318 320 321 320
323 320 324 327 326 326 329 329 330 330 330 329 330 329 329 329 331 333 334 335 337 338 337 339 338 337 336 335 335 334 332 331 332 332 333 334 333 332 332 331 330 329 328 327 328 327 325 323 320 318 315 313 314 315 316 317 317 315 312 311 311 312 312
323 320 323 325 325 327 328 328 328 328 328 329 330 329 328 329 331 333 334 334 336 336 337 338 337 336 336 335 334 333 332 332 332 332 332 332 333 333 332 330 329 329 328 328 327 326 326 324 319 313 310 311 311 311 310 312 313 311 310 311 313 313 312
325 324 325 326 325 326 327 327 326 325 325 326 327 327 327 328 330 332 333 334 335 335 336 337 337 336 335 335 334 333 332 332 332 332 331 331 332 332 331 330 329 328 327 327 326 326 327 325 319 313 309 309 309 310 308 307 307 306 308 313 317 317 314
324 324 326 326 325 325 325 326 326 325 325 325 325 326 327 327 329 331 332 333 333 333 334 336 336 336 336 334 333 332 331 331 332 332 331 331 331 331 330 330 329 327 326 325 325 325 325 323 320 318 316 311 308 307 307 306 307 306 305 307 308 309 309
322 324 326 326 326 325 324 324 325 325 325 324 325 325 326 327 327 328 331 332 332 332 333 334 335 336 335 334 333 331 331 331 331 331 331 331 330 330 329 328 327 326 324 324 323 323 322 322 323 321 317 311 307 309 312 312 309 305 306 310 310 307 308
324 326 327 325 325 325 325 325 325 325 325 324 324 324 325 326 327 327 328 330 330 331 333 333 334 334 334 334 334 332 331 331 331 332 331 331 330 330 329 327 326 326 325 323 321 320 318 318 318 316 314 312 310 313 317 316 310 305 309 316 319 318 317
325 326 325 324 324 324 324 325 326 325 325 325 324 324 324 325 325 326 326 327 328 329 330 332 332 332 332 333 333 333 332 331 331 331 331 331 330 330 329 327 326 326 324 321 319 317 316 315 313 311 310 310 311 314 314 310 308 307 307 310 316 320 322
324 325 324 324 324 325 326 326 325 324 324 325 325 325 324 324 324 325 325 326 326 327 328 329 330 331 331 332 333 333 332 332 330 330 331 330 331 330 329 327 326 325 322 318 316 316 316 316 314 310 308 310 315 318 315 310 309 309 308 312 317 319 320
325 326 325 323 323 325 327 326 325 324 324 324 325 325 324 324 324 324 325 326 326 326 327 327 328 330 330 330 331 331 332 331 331 332 331 331 331 330 329 328 327 325 321 317 316 316 318 317 315 312 310 311 316 317 313 309 309 308 309 316 321 320 319
325 325 325 323 321 324 327 326 325 325 324 324 326 325 325 324 324 324 324 325 325 326 326 326 326 328 329 329 329 329 330 330 331 332 331 330 330 329 328 328 327 323 319 317 316 316 318 317 315 314 312 311 313 313 310 308 310 308 308 314 319 320 319
325 324 324 323 322 325 326 325 324 324 323 323 324 325 325 324 323 324 324 325 324 325 326 326 325 326 326 327 328 328 328 329 330 330 330 330 328 327 328 328 326 322 318 316 316 317 318 317 316 317 318 315 314 314 312 309 309 309 308 313 317 317 317
Wind_Speed
14 17 16 13 10 7 6 8 9 7 5 5 6 7 7 7 6 3 4 2 2 4 6 5 7 9 10 10 14 21 23 26 27 27 29 27 24 26 27 26 26 26 26 25 23 23 22 22 22 21 20 20 19 17 17 18 19 18 18 18 16 16 16
12 16 17 15 12 9 4 7 10 7 6 7 5 5 6 5 6 4 5 6 5 4 4 5 7 9 11 10 12 18 20 23 25 25 26 27 25 26 27 27 27 26 26 25 24 23 22 22 22 21 20 20 19 18 17 18 18 18 18 17 17 16 16
11 13 14 13 13 14 10 7 8 9 7 7 6 5 5 6 7 4 4 8 7 4 4 6 6 6 8 10 12 14 17 22 24 24 26 27 25 25 26 26 26 27 26 25 23 22 22 22 21 20 20 20 19 19 18 18 17 17 17 17 16 16 16
11 10 10 10 11 14 12 8 7 11 8 6 6 5 5 5 5 3 4 6 2 3 5 9 8 6 7 9 12 12 15 20 22 24 28 26 22 21 23 23 24 26 26 25 24 22 22 22 21 19 20 19 19 19 17 17 17 17 16 16 16 16 16
11 9 9 11 11 12 11 8 7 9 8 7 7 6 6 5 3 3 4 4 0 2 1 7 9 9 9 10 11 11 14 18 20 23 27 26 20 18 19 19 20 24 25 23 23 22 21 22 21 19 19 18 17 17 17 17 17 17 17 16 16 16 16
9 9 11 14 14 12 11 10 9 9 8 8 8 8 8 7 7 6 6 3 3 1 2 4 6 6 8 10 11 12 13 16 19 20 23 25 22 18 18 17 17 20 22 21 21 21 20 21 21 20 19 19 17 17 16 16 16 16 17 17 16 16 16
8 10 13 15 17 15 13 12 11 11 10 9 9 9 8 8 9 8 8 5 2 2 2 4 5 5 7 8 10 13 12 14 17 18 20 23 22 19 19 19 17 17 19 21 20 19 18 18 19 20 21 19 17 15 15 15 15 15 15 16 17 17 16
6 9 12 14 16 15 11 11 12 12 11 10 10 10 7 7 8 6 7 6 3 2 2 3 6 7 9 9 11 13 12 12 15 17 20 22 21 20 21 22 20 18 21 22 18 15 15 15 17 18 18 16 14 13 13 13 13 13 13 14 16 18 18
5 7 9 11 12 11 8 9 13 13 15 15 12 10 9 8 9 10 8 5 2 3 1 2 6 8 10 11 13 13 12 11 13 17 19 20 21 21 21 23 22 20 22 23 18 14 12 10 12 14 13 13 13 12 12 11 11 13 14 16 18 19 18
8 7 6 5 7 9 8 10 13 16 19 19 12 8 9 9 10 11 9 4 3 4 2 3 6 8 10 13 13 12 13 14 15 17 19 19 20 20 18 20 19 16 18 20 19 18 14 9 10 12 11 11 11 11 11 11 12 13 15 16 17 18 18
7 4 4 7 9 10 11 13 15 16 19 17 11 8 9 7 7 8 7 4 6 5 2 4 6 8 9 11 11 8 10 15 17 17 18 18 19 18 16 16 16 13 13 16 18 20 21 17 13 9 9 10 10 11 11 11 12 13 13 13 13 15 17
10 7 7 10 12 13 15 17 17 13 12 13 11 10 6 2 4 6 3 2 6 8 6 6 6 8 9 9 10 7 5 12 17 17 17 17 17 16 15 14 13 11 11 13 15 17 20 21 18 15 13 14 14 13 12 12 12 12 13 13 13 14 16
12 12 9 10 13 14 13 14 14 12 13 13 13 14 10 4 5 4 7 7 1 5 8 6 5 8 10 10 10 8 4 8 14 16 16 15 15 16 16 15 12 10 9 10 13 16 17 19 19 18 18 18 18 18 17 17 17 16 15 16 16 16 17
11 11 9 11 13 11 7 7 8 10 13 14 13 14 11 5 5 4 4 8 7 5 4 6 7 10 12 12 11 9 6 8 13 15 16 15 15 17 16 14 13 10 9 9 11 12 14 15 17 18 19 19 19 20 20 22 22 21 19 19 19 19 20
8 10 11 11 10 8 4 4 7 9 11 12 9 7 5 3 5 5 5 7 5 5 6 7 8 10 11 10 10 9 8 9 12 14 16 16 16 15 14 12 10 8 8 8 9 8 9 11 13 14 14 16 18 20 21 22 23 23 24 24 24 23 23
6 10 12 10 10 11 8 2 2 2 4 5 2 0 3 1 3 5 6 5 3 5 7 7 7 9 10 10 10 11 9 9 11 14 17 17 14 12 11 9 8 8 7 7 8 7 6 8 9 9 10 11 13 16 18 21 22 23 25 25 25 24 22
5 7 8 8 8 10 8 3 6 6 4 4 3 5 2 3 2 2 3 4 4 6 6 6 7 8 9 10 11 12 10 10 12 14 16 15 12 11 12 11 11 11 10 9 9 7 6 6 7 7 8 9 10 12 16 19 20 21 22 22 22 22 20
5 7 6 8 8 6 4 4 6 8 4 2 4 8 7 8 8 4 3 5 6 6 6 6 7 8 9 10 11 12 12 12 13 12 12 12 14 16 16 14 13 12 10 9 8 7 6 6 8 8 8 10 11 13 14 16 17 20 22 22 22 22 21
3 7 10 8 5 2 1 4 7 6 5 4 9 12 12 12 11 8 7 7 6 8 8 8 10 13 15 15 14 14 12 11 11 11 10 10 14 19 17 13 12 11 10 10 8 7 7 6 6 7 8 11 12 13 14 12 12 15 20 23 23 23 22
5 5 7 5 3 1 2 5 8 6 2 3 6 9 11 13 11 8 7 7 8 11 12 11 12 14 16 16 15 15 13 11 11 12 12 10 13 17 16 14 13 12 10 10 7 6 6 5 4 4 5 7 9 11 12 12 11 12 15 19 21 21 22
7 5 3 2 2 2 0 4 6 7 6 4 3 5 10 11 9 8 7 7 9 11 11 11 11 13 14 13 13 14 14 12 13 14 13 12 15 16 15 14 14 12 11 11 8 7 8 7 6 5 3 2 1 6 8 9 11 12 13 14 12 12 13
7 5 4 4 4 2 0 3 6 8 7 8 8 3 7 10 10 9 8 6 7 8 9 11 11 11 9 8 8 12 14 14 15 15 13 12 14 16 15 14 14 13 13 12 10 9 11 12 12 12 10 9 6 2 2 3 4 6 8 8 8 9 10
5 5 5 5 5 3 2 4 7 9 9 10 9 2 5 9 11 10 8 7 5 5 8 9 9 7 7 5 6 10 12 12 13 14 14 12 11 12 12 13 14 14 13 13 12 12 13 14 15 14 12 9 7 7 7 5 5 5 5 7 10 11 12
6 6 5 3 2 4 4 4 5 7 8 8 6 2 4 9 11 9 9 9 7 5 7 8 5 3 5 7 9 11 12 12 12 13 13 12 12 12 11 11 13 15 15 14 15 14 14 15 14 12 10 8 7 9 9 7 6 6 7 8 10 12 12
7 7 2 3 3 4 4 3 4 5 5 5 4 1 4 8 8 8 9 9 8 6 6 8 6 3 7 12 15 14 13 15 16 15 13 13 15 15 12 11 12 14 16 16 15 15 14 14 13 12 10 8 9 10 10 9 7 7 7 8 8 9 11
5 5 2 3 3 3 5 2 3 6 5 2 2 4 5 7 7 7 8 8 8 8 7 8 7 8 11 15 16 13 11 12 13 13 12 13 15 15 12 11 11 13 15 16 15 14 13 11 11 10 8 7 8 9 9 9 8 8 8 9 9 9 10
3 4 3 2 3 5 7 2 2 7 5 4 4 4 5 6 6 5 6 8 8 7 7 7 8 11 14 15 14 12 11 11 11 11 11 12 13 14 13 11 11 12 14 14 14 13 11 9 9 9 8 7 7 7 8 9 8 7 7 7 8 8 8
3 2 3 3 3 7 10 7 6 7 9 8 5 4 7 8 7 6 6 7 7 6 6 7 8 10 12 12 12 10 10 11 11 11 12 12 13 13 12 11 11 12 13 13 12 12 10 8 8 9 9 8 7 7 8 9 8 8 7 8 8 7 7
4 4 6 6 7 10 13 13 12 11 10 9 7 8 10 9 9 8 7 6 6 5 5 6 6 7 8 9 10 9 9 11 11 11 12 13 13 12 11 11 11 11 11 11 10 10 9 6 5 7 9 9 8 8 8 8 8 8 8 8 7 6 5
8 8 8 8 9 11 11 12 11 10 9 9 9 10 10 10 10 10 8 7 6 5 4 5 5 5 5 6 8 9 9 10 10 10 11 12 12 12 12 11 10 10 10 10 10 9 9 7 6 7 8 8 8 8 8 8 8 7 8 7 6 5 4
3 4 7 8 8 9 9 9 9 9 9 9 9 9 9 9 10 10 9 8 6 4 4 3 4 4 5 6 8 9 8 9 9 9 9 10 11 12 12 11 10 10 9 9 10 9 9 9 8 7 6 6 7 8 8 7 6 6 7 6 5 5 5
2 4 8 8 7 7 6 5 7 8 8 8 8 8 8 8 8 9 8 8 7 6 4 3 2 3 4 6 7 8 8 9 9 9 9 10 11 12 12 11 10 10 9 9 9 7 7 7 6 5 5 6 7 8 7 5 4 5 6 6 4 4 4
4 5 7 8 6 6 5 4 6 7 6 6 6 6 6 7 7 7 7 8 7 7 6 4 3 2 3 5 5 7 9 9 8 9 10 10 10 11 12 12 11 10 9 8 6 4 4 4 4 3 3 4 6 6 4 3 4 5 5 5 5 3 3
2 4 7 7 3 3 6 6 6 5 5 4 5 5 5 6 6 6 6 7 6 6 6 5 3 2 2 3 3 5 8 8 7 8 9 10 10 11 12 12 11 10 9 6 4 3 3 2 3 3 3 4 5 5 2 3 4 5 5 5 4 3 2
4 6 7 5 2 3 8 7 5 5 4 3 4 4 4 4 5 5 5 6 6 6 5 4 4 2 1 1 2 4 5 5 5 7 8 9 10 11 11 11 12 12 10 8 5 4 3 1 0 1 2 4 4 3 0 3 3 4 5 5 3 1 0
5 6 5 3 2 4 8 7 4 5 3 2 3 3 2 3 4 4 4 4 5 5 4 4 4 3 2 1 2 4 4 4 4 5 7 8 9 11 11 12 14 13 11 9 8 6 4 3 2 2 1 1 2 2 2 2 2 3 3 4 3 1 1
4 6 6 4 3 6 8 6 4 4 2 1 2 2 2 3 3 3 3 3 4 4 3 3 3 3 2 1 2 3 4 4 4 4 6 8 9 11 12 13 14 14 13 12 10 7 6 5 5 5 4 3 4 3 3 2 2 2 1 3 3 2 2
Wind_Direction
188 194 219 223 221 222 190 205 229 220 184 192 234 255 256 258 263 236 197 240 27 118 174 174 146 149 150 152 151 151 164 172 174 181 184 183 185 183 183 186 185 181 179 179 178 178 179 181 183 182 180 180 179 180 183 186 190 194 198 199 196 196 194
194 193 212 217 228 247 215 199 216 206 183 183 203 252 249 242 251 215 181 217 213 195 198 170 172 168 153 156 147 144 158 168 175 185 182 178 183 184 183 186 186 181 180 181 180 180 182 182 183 182 181 182 182 183 184 185 189 193 198 202 200 200 199
189 184 209 216 221 237 250 244 212 197 200 192 185 227 238 227 242 236 215 226 213 186 180 166 179 189 164 154 146 151 166 171 178 185 179 176 181 185 184 183 183 181 180 182 181 181 183 182 182 181 181 184 185 187 188 188 191 195 197 201 201 202 202
186 178 207 213 203 215 238 266 234 205 209 217 202 211 236 244 255 266 262 253 241 92 146 159 171 185 169 151 151 166 175 172 178 182 177 176 177 181 181 176 178 181 180 181 182 182 183 181 182 181 182 186 188 188 191 193 195 197 200 202 202 202 204
192 189 205 213 204 198 209 231 231 210 204 219 222 217 222 237 238 231 258 260 94 28 138 159 162 157 154 165 164 167 172 171 177 179 174 172 172 173 174 168 172 180 180 180 182 183 183 181 180 179 181 186 190 191 191 195 198 200 202 203 202 204 205
203 201 199 214 219 206 200 210 220 221 214 209 219 224 217 224 232 233 253 244 140 297 299 146 156 146 148 166 155 148 166 169 169 172 172 171 171 169 169 167 170 176 177 176 179 181 181 180 181 185 186 185 188 192 190 195 201 202 203 203 203 205 207
229 216 199 208 224 221 208 207 215 228 229 217 222 227 214 224 238 237 249 242 153 264 282 122 131 134 134 143 131 133 154 160 156 162 169 171 170 165 167 171 171 172 174 173 175 182 182 177 180 191 197 191 185 186 186 193 199 199 202 203 204 206 206
253 224 199 197 218 227 215 207 211 224 232 225 231 243 233 231 238 236 249 247 170 197 266 103 112 122 127 127 120 125 140 149 152 159 167 168 163 162 170 173 168 170 173 166 161 171 179 175 176 184 191 186 177 176 183 192 197 195 196 197 202 210 211
231 217 198 186 202 220 225 216 205 214 231 229 229 244 250 246 238 229 239 252 148 127 150 129 130 127 122 117 116 126 139 145 151 157 164 166 161 162 167 167 163 162 161 156 150 155 158 153 159 167 169 168 169 174 182 190 192 192 197 201 207 216 218
218 214 208 201 204 206 224 228 205 204 224 230 230 234 232 240 241 232 236 240 115 107 141 163 141 127 119 113 116 130 139 141 145 152 158 162 162 163 166 171 174 170 164 170 182 190 184 160 147 153 154 156 169 183 190 196 196 197 207 214 218 223 223
242 250 272 268 243 209 208 224 218 211 216 223 235 239 226 237 250 240 239 211 145 125 172 183 144 128 124 116 113 115 128 137 140 144 150 156 161 163 164 169 176 176 173 181 194 202 205 202 198 198 186 173 180 192 198 206 207 207 217 223 224 228 227
243 245 259 256 246 222 209 215 220 219 215 216 228 238 240 301 256 244 290 262 184 159 165 180 152 131 125 116 110 97 109 137 140 141 145 149 155 158 159 161 166 174 181 187 195 201 204 208 217 225 218 208 208 208 210 220 222 219 225 230 231 232 231
233 233 240 237 237 232 219 215 215 212 213 216 224 236 245 265 255 273 6 6 346 143 147 155 140 127 122 112 110 111 108 123 134 141 143 146 153 154 152 154 159 169 179 191 206 207 203 207 213 215 216 219 223 223 225 230 229 225 227 233 237 236 233
232 220 227 231 232 234 233 239 241 227 220 218 219 234 243 249 264 276 43 55 42 43 96 120 113 115 117 113 115 128 137 125 128 137 137 137 141 139 137 137 142 156 170 184 202 205 203 209 215 217 220 225 230 232 231 231 230 229 231 237 241 240 237
243 210 213 219 215 209 207 240 252 240 230 224 220 243 263 244 238 227 121 95 75 58 67 90 106 113 120 128 130 130 140 145 144 143 136 128 124 128 132 126 131 154 169 178 189 189 194 205 213 218 222 227 232 234 235 233 232 232 233 236 240 242 243
251 212 205 199 185 172 155 118 332 260 245 238 179 54 321 281 214 183 130 116 121 97 83 93 118 123 125 132 132 128 134 147 147 140 131 121 117 140 154 136 134 155 156 161 173 170 173 192 204 213 219 227 235 238 238 235 231 232 234 235 238 241 244
248 222 196 183 187 172 140 53 5 32 2 293 142 118 60 55 91 194 157 128 119 107 106 125 135 132 132 132 131 132 133 128 124 124 123 119 123 146 150 132 133 143 135 135 149 145 143 166 185 195 202 211 222 231 237 236 231 230 231 230 229 231 233
276 281 239 193 193 181 122 14 11 59 56 318 83 76 46 54 76 98 124 125 129 124 122 135 134 115 105 107 105 105 108 104 100 106 120 132 140 139 131 124 126 129 121 117 124 125 133 166 183 187 192 199 206 215 224 229 228 226 225 224 225 226 224
255 282 257 211 178 184 130 29 22 62 102 84 69 61 44 45 62 84 111 121 120 113 106 109 112 98 85 84 82 80 86 94 97 110 126 141 141 132 123 120 119 119 120 115 112 116 124 143 165 179 200 211 215 218 217 215 217 222 224 227 231 233 228
218 232 244 216 150 178 135 65 26 9 40 67 72 69 53 42 41 53 78 88 89 101 106 103 105 104 95 89 81 75 81 96 109 120 124 125 125 121 117 117 115 113 113 107 100 110 121 127 138 158 202 219 229 237 231 220 221 228 230 230 233 235 232
245 207 172 145 156 238 55 57 21 4 8 355 3 75 65 47 38 43 56 80 92 100 112 116 116 113 105 94 77 64 69 91 106 113 115 111 108 109 110 111 110 107 103 97 90 94 103 109 108 99 80 55 274 253 237 219 217 218 216 212 207 205 210
253 219 169 149 162 192 52 38 9 2 1 340 330 31 74 47 34 39 47 74 93 101 125 141 137 122 104 95 75 54 55 74 90 95 98 97 97 102 108 109 108 108 104 97 94 98 101 99 92 83 73 64 59 69 142 181 201 206 204 187 146 139 161
244 231 201 187 173 154 81 32 5 355 353 343 331 346 75 33 19 25 39 55 70 99 134 147 146 126 102 95 92 76 69 74 84 92 96 93 88 92 101 109 113 114 108 100 99 104 104 98 91 85 80 76 78 87 88 88 97 112 134 127 112 123 146
240 233 201 170 115 95 69 24 353 351 353 336 299 209 75 17 2 8 28 46 51 68 111 114 105 105 122 138 136 122 112 108 108 110 109 107 106 102 101 110 115 113 109 105 104 104 102 98 94 88 84 85 90 93 89 86 96 109 113 115 123 132 131
239 237 187 94 88 82 49 11 355 348 333 304 270 164 38 3 353 358 12 39 54 52 79 97 104 140 157 156 152 145 135 128 124 121 115 117 125 125 117 115 114 111 109 108 107 108 105 99 92 86 85 91 91 90 89 87 90 95 93 99 122 134 123
223 220 147 111 119 54 2 346 22 348 311 236 94 64 32 4 6 12 12 33 59 61 63 82 111 135 143 147 149 147 141 135 132 129 123 122 129 132 127 122 119 115 112 109 107 107 103 96 90 83 78 88 94 93 91 87 86 87 87 91 104 113 109
218 191 141 136 131 34 358 323 53 6 11 102 100 79 66 38 30 38 28 30 47 65 76 83 103 124 136 144 146 143 140 138 136 133 129 127 128 129 129 127 123 119 114 110 108 109 107 102 95 82 68 74 92 102 102 96 91 86 83 83 87 89 87
313 217 103 91 94 54 38 57 84 62 68 87 82 73 77 59 41 47 51 46 43 51 78 96 108 121 133 141 143 142 139 137 137 136 134 136 136 134 132 129 125 122 117 114 112 111 111 107 93 81 76 83 97 103 100 100 104 102 90 78 73 73 75
42 62 86 95 93 77 68 75 86 87 85 80 65 67 71 57 43 45 55 69 66 56 81 107 120 126 133 143 148 146 139 135 138 141 138 140 142 141 139 136 132 128 122 119 115 110 110 112 96 81 82 87 96 99 95 95 99 100 97 92 84 79 79
90 85 96 106 95 87 86 84 84 83 80 74 66 67 65 54 49 50 51 57 60 62 86 108 123 131 140 150 149 146 141 138 140 144 145 147 149 149 148 145 138 132 125 119 115 110 107 104 97 93 93 92 95 100 97 94 93 93 96 99 100 100 92
132 106 108 111 102 99 101 98 96 89 75 69 65 62 63 60 56 53 51 51 54 59 67 87 114 129 147 158 154 154 153 144 141 146 149 148 148 151 154 151 143 138 131 123 120 118 115 109 106 108 108 99 95 96 93 88 83 83 86 85 81 81 77
109 99 108 112 109 110 108 103 106 99 82 76 72 63 65 68 61 56 54 49 49 51 48 57 89 118 147 159 162 166 166 157 151 154 153 149 152 156 157 152 146 143 138 131 129 128 123 118 112 109 107 103 101 103 105 98 80 77 84 87 79 66 60
126 122 137 140 134 134 130 104 95 94 85 83 79 66 65 68 61 58 57 50 46 44 43 49 62 91 133 150 167 175 172 168 163 162 163 163 163 162 160 157 154 152 150 147 141 130 116 99 84 86 104 109 107 108 108 93 77 72 79 96 105 98 75
158 134 147 148 141 139 134 119 104 98 90 86 83 68 59 59 51 47 49 51 51 46 40 41 46 60 110 133 164 174 173 176 178 176 176 175 171 170 169 166 164 168 178 185 177 153 130 92 60 47 56 80 103 115 93 53 61 61 65 80 90 98 109
92 111 129 127 62 100 123 125 117 103 91 82 85 72 51 48 46 40 41 43 45 46 40 35 31 23 29 150 181 182 182 186 187 186 186 183 181 182 179 171 171 180 194 207 209 202 199 195 7 348 42 81 117 154 315 19 38 42 62 84 88 75 141
116 123 120 106 76 115 130 137 129 115 113 103 93 84 60 52 42 33 38 40 36 38 38 34 33 23 359 315 244 224 217 211 201 198 200 198 195 197 192 184 189 200 209 213 215 219 219 219 213 212 201 121 142 194 298 1 13 10 48 90 108 111 304
112 112 110 113 119 125 133 144 144 130 134 137 120 110 92 77 52 29 36 38 30 35 37 34 38 34 22 358 278 257 244 236 231 217 210 208 207 205 199 194 204 217 221 217 218 222 219 209 189 178 184 178 172 199 256 298 310 321 54 131 155 185 244